Houston, TX

1:39 PM CST on January 23, 2017 (GMT -0600)
Hobby

Weather History for KHOU - January, 2012

Change the Weather History Date:

Friday, January 6, 2012

  Actual Average Record
Temperature  
Mean Temperature 65 °F 53 °F  
Max Temperature 75 °F 62 °F 80 °F (1989)
Min Temperature 55 °F 43 °F 22 °F (1972)
Degree Days  
Heating Degree Days 0 13  
Month to date heating degree days 45 78  
Since 1 July heating degree days 565 617  
Cooling Degree Days 2    
Growing Degree Days 17 (Base 50)    
Moisture  
Dew Point 58 °F    
Average Humidity 73    
Maximum Humidity 100    
Minimum Humidity 46    
Precipitation  
Precipitation 0.00 in 0.11 in 3.70 in (1900)
Month to date precipitation T 0.63  
Year to date precipitation T 0.63  
Sea Level Pressure  
Sea Level Pressure 30.06 in    
Wind  
Wind Speed 6 mph (South)    
Max Wind Speed 18 mph    
Max Gust Speed 26 mph    
Visibility 9 miles    
Events      
T = Trace of Precipitation, MM = Missing Value Source: NWS Daily Summary

Daily Weather History Graph

Daily Weather History Graph

Search for Another Location

Airport or City:

Trip Planner

Search our weather history database for the weather conditions in past years. The results will help you decide how hot, cold, wet, or windy it might be!

Date:

Astronomy

Jan. 06, 2012 Rise Set
Actual Time 7:17 AM CST 5:36 PM CST
Civil Twilight 6:51 AM CST 6:02 PM CST
Nautical Twilight 6:21 AM CST 6:32 PM CST
Astronomical Twilight 5:52 AM CST 7:01 PM CST
Moon 3:29 PM CST (1/6) 4:56 AM CST (1/6)
Length of Visible Light 11h 11m
Length of Day
10h 19m
Waxing Gibbous, 93% of the Moon is Illuminated
Jan 6
Waxing Gibbous
Jan 9
Full
Jan 16
Last Quarter
Jan 23
New
Jan 30
First Quarter

Hourly Weather History & Observations

Time (CST) Temp. Dew Point Humidity Pressure Visibility Wind Dir Wind Speed Gust Speed Precip Events Conditions
12:53 AM 62.1 °F 60.1 °F 93% 30.13 in 10.0 mi South 5.8 mph - N/A   Mostly Cloudy
1:53 AM 60.8 °F 59.0 °F 94% 30.10 in 10.0 mi SSE 6.9 mph - N/A   Scattered Clouds
2:53 AM 61.0 °F 59.0 °F 93% 30.10 in 9.0 mi South 4.6 mph - N/A   Scattered Clouds
3:35 AM 62.6 °F 60.8 °F 94% 30.08 in 10.0 mi South 5.8 mph - N/A   Mostly Cloudy
3:53 AM 61.0 °F 60.1 °F 97% 30.09 in 10.0 mi South 3.5 mph - N/A   Mostly Cloudy
4:47 AM 59.0 °F 57.2 °F 94% 30.08 in 2.0 mi Calm Calm - N/A   Scattered Clouds
4:53 AM 60.1 °F 57.9 °F 93% 30.09 in 2.5 mi Calm Calm - N/A   Scattered Clouds
5:05 AM 60.8 °F 59.0 °F 94% 30.07 in 6.0 mi SSW 3.5 mph - N/A   Scattered Clouds
5:53 AM 62.1 °F 60.1 °F 93% 30.09 in 10.0 mi South 4.6 mph - N/A   Scattered Clouds
6:53 AM 61.0 °F 59.0 °F 93% 30.09 in 8.0 mi SSE 5.8 mph - N/A   Mostly Cloudy
7:53 AM 63.0 °F 61.0 °F 93% 30.10 in 10.0 mi South 5.8 mph - N/A   Mostly Cloudy
8:53 AM 64.0 °F 61.0 °F 90% 30.11 in 10.0 mi SSW 6.9 mph - N/A   Mostly Cloudy
9:53 AM 64.9 °F 61.0 °F 87% 30.12 in 10.0 mi SW 6.9 mph - N/A   Mostly Cloudy
10:53 AM 68.0 °F 59.0 °F 73% 30.12 in 10.0 mi WSW 12.7 mph - N/A   Mostly Cloudy
11:53 AM 69.1 °F 57.0 °F 65% 30.09 in 10.0 mi SW 11.5 mph - N/A   Mostly Cloudy
12:53 PM 71.6 °F 55.4 °F 57% 30.04 in 10.0 mi SSW 10.4 mph - N/A   Scattered Clouds
1:53 PM 75.0 °F 55.0 °F 50% 30.03 in 10.0 mi SSW 18.4 mph 25.3 mph N/A   Mostly Cloudy
2:53 PM 73.9 °F 53.1 °F 48% 30.01 in 10.0 mi South 15.0 mph 21.9 mph N/A   Scattered Clouds
3:53 PM 73.0 °F 54.0 °F 51% 30.00 in 10.0 mi South 13.8 mph 21.9 mph N/A   Scattered Clouds
4:53 PM 71.1 °F 57.0 °F 61% 30.00 in 10.0 mi South 13.8 mph - N/A   Scattered Clouds
5:53 PM 68.0 °F 59.0 °F 73% 30.01 in 10.0 mi SSE 8.1 mph - N/A   Scattered Clouds
6:53 PM 64.9 °F 59.0 °F 81% 30.01 in 10.0 mi SSE 6.9 mph - N/A   Scattered Clouds
7:53 PM 63.0 °F 59.0 °F 87% 30.02 in 10.0 mi South 5.8 mph - N/A   Scattered Clouds
8:53 PM 62.1 °F 59.0 °F 90% 30.01 in 10.0 mi South 4.6 mph - N/A   Partly Cloudy
9:53 PM 60.1 °F 57.9 °F 93% 30.00 in 10.0 mi South 4.6 mph - N/A   Clear
10:53 PM 60.1 °F 57.9 °F 93% 30.01 in 10.0 mi South 4.6 mph - N/A   Clear
11:53 PM 59.0 °F 57.0 °F 93% 30.01 in 10.0 mi South 5.8 mph - 0.01 in   Clear